Regional Weather Roundup
Issued by NWS

Home | Current Version | Previous Version | Text Only | Print | Product List | Glossary Off
Versions: 1 2 3 4 5 6 7 8 9 10 11 12 13 14 15 16 17 18 19 20 21 22 23 24 25 26 27 28 29 30 31 32 33 34 35 36 37 38 39 40 41 42 43 44 45 46 47 48 49 50

000
ASUS43 KMPX 260501
RWRMN
WEATHER ROUNDUP FOR MINNESOTA
NATIONAL WEATHER SERVICE TWIN CITIES/CHANHASSEN MN
1100 PM CST SAT FEB 25 2017


NOTE: "FAIR" INDICATES FEW OR NO CLOUDS BELOW 12,000 FEET WITH NO
SIGNIFICANT WEATHER AND/OR OBSTRUCTIONS TO VISIBILITY. N/A MEANS
CURRENT SKY AND/OR WEATHER CONDITIONS ARE NOT AVAILABLE.

MNZ060>063-068>070-260600-
   Twin Cities Metro

CITY           SKY/WX    TMP DP  RH WIND       PRES   REMARKS
TWIN CITIES    CLOUDY    25  15  66 SW13G20   29.83F WCI  14
ST PAUL        CLOUDY    25  16  68 S8        29.85S WCI  16
CRYSTAL        CLOUDY    25  15  66 S9        29.81S WCI  15
BLAINE         CLOUDY    27  19  74 SW14G22   29.81S WCI  15
LAKEVILLE      MOCLDY    23  18  80 SW6       29.84S WCI  16
EDEN PRAIRIE   CLEAR     25  17  72 SW15      29.82F WCI  13
SOUTH ST PAUL  CLOUDY    26  17  68 S9        29.84S WCI  16
LAKE ELMO      FAIR      25  19  80 S10       29.84S WCI  15
$$
MNZ001>005-007-008-013>017-022>024-027-028-260600-
   Northwest Minnesota

CITY           SKY/WX    TMP DP  RH WIND       PRES   REMARKS
BEMIDJI        CLOUDY    18  16  91 CALM      29.68S
HALLOCK        PTCLDY    12   9  85 CALM      29.73S
ROSEAU         PTCLDY    10   7  85 W5        29.70F WCI   2
WARROAD        CLEAR     10   7  85 W3        29.70S
THIEF RVR FALL PTCLDY    15  10  80 N12       29.71F WCI   2
CROOKSTON      CLEAR     18  14  86 N8        29.73F WCI   7
FOSSTON        CLOUDY    18  12  79 N5        29.69F WCI  11
DETROIT LAKES  PTCLDY    27  23  86 CALM      29.69F
MOORHEAD       CLEAR     25  19  80 W3        29.72S
PARK RAPIDS    CLOUDY    26  22  84 SW3       29.67F
MAHNOMEN       FAIR      20  18  91 N5        29.69S WCI  13
$$
MNZ006-009>011-018-025>026-260600-
   North Central Minnesota

CITY           SKY/WX    TMP DP  RH WIND       PRES   REMARKS
BAUDETTE       CLOUDY    14   7  73 W8        29.67F WCI   3
FLAG ISLAND    CLOUDY    12   7  79 NW10      29.68S WCI  -1
INTL FALLS     CLEAR     16   7  67 W7        29.67S WCI   6
WASKISH        PTCLDY    12  10  92 CALM      29.68F
BIG FORK       CLOUDY    21  18  86 CALM      29.68S
LONGVILLE      CLOUDY    25  23  93 CALM      29.68F
GRAND RAPIDS   FLURRIES  24  20  84 CALM      29.69F
CRANE LAKE     CLEAR     10   9  92 CALM      29.69S
ORR            PTCLDY    18  12  79 CALM      29.65R
COOK           CLOUDY    21  18  86 CALM      29.67F
WALKER         CLOUDY    23  20  89 SW3       29.68S
$$
MNZ012-019>021-037-260600-
   Northeast Minnesota

CITY           SKY/WX    TMP DP  RH WIND       PRES   REMARKS
DULUTH         LGT SNOW  26  24  92 SW7       29.69F VSB 3/4 WCI  18
ELY            CLOUDY    21  18  86 SW5       29.66S WCI  15
HIBBING        CLOUDY    21  19  92 SW3       29.67F
EVELETH        MOCLDY    22  19  87 SW3       29.68F
DULUTH HARBOR  LGT SNOW  28  27  93 CALM      29.75F
TWO HARBORS    PTCLDY    21  18  86 W3        29.69F
SILVER BAY     CLEAR     18  16  93 CALM      29.69S
GRAND MARAIS     N/A     23  15  71 W5        29.71F WCI  17
G MARAIS ARPRT LGT SNOW  14   9  79 CALM      29.64F
$$
MNZ029>031-032-039>041-046>048-054>057-064-260600-
   West Central Minnesota

CITY           SKY/WX    TMP DP  RH WIND       PRES   REMARKS
FERGUS FALLS   FOG       19  19 100 CALM      29.76S VSB 1/4
WHEATON        MOCLDY    27  25  93 CALM      29.75S
MORRIS         CLOUDY    30  25  80 SW9       29.71S WCI  22
ALEXANDRIA     CLOUDY    28  23  81 SW16      29.70S WCI  16
ELBOW LAKE     LGT SNOW  25  24  99 CALM      29.72S
WADENA         LGT SNOW  23  23 100 CALM      29.68F
GLENWOOD       CLOUDY    27  21  80 S16       29.71F WCI  14
APPLETON       CLOUDY    28  21  74 SW10      29.74F WCI  19
BENSON         CLOUDY    30  19  64 W8        29.75F WCI  23
ORTONVILLE       N/A     28  21  74 CALM      29.73S
MADISON        CLOUDY    30  25  80 SW17G24   29.74S WCI  18
WILLMAR        MOCLDY    28  21  74 SW9       29.77S WCI  20
$$
MNZ033>034-036-042>043-049>051-058-059-260600-
   Central Minnesota

CITY           SKY/WX    TMP DP  RH WIND       PRES   REMARKS
ST CLOUD       CLOUDY    27  19  72 SW12      29.75F WCI  17
SAUK CENTRE    CLOUDY    27  21  78 SW14      29.72S WCI  16
PAYNESVILLE    CLOUDY    27  21  77 SW10G17   29.75F WCI  17
AITKIN         FLURRIES  28  25  86 CALM      29.69S
PINE RIVER     LGT SNOW N/A N/A N/A CALM      29.73F
BRAINERD       CLOUDY    27  25  92 SW5       29.70F FOG     WCI  22
STAPLES        LGT SNOW  25  25 100 CALM      29.70S VSB 3/4
LONG PRAIRIE   MOCLDY    28  21  74 S14       29.71F WCI  17
LITTLE FALLS   CLOUDY    28  21  74 S13       29.72F WCI  18
LITCHFIELD     PTCLDY    27  19  74 S5        29.77F WCI  21
BUFFALO        CLOUDY    27  18  71 S9G17     29.80F WCI  17
MAPLE LAKE     CLOUDY    28  21  76 S8G18     29.78F WCI  20
HUTCHINSON     CLEAR     26  19  75 S10       29.80F WCI  16
$$
MNZ037-044-045-052-053-260600-
   East Central Minnesota

CITY           SKY/WX    TMP DP  RH WIND       PRES   REMARKS
PRINCETON      CLOUDY    28  19  69 S10G17    29.76F WCI  19
MORA           CLOUDY    28  19  69 SW15      29.76F WCI  17
CAMBRIDGE      CLOUDY    28  19  69 S12       29.76F WCI  18
RUSH CITY      CLOUDY    27  19  74 S12G17    29.77F WCI  16
MOOSE LAKE     CLOUDY    30  23  74 SW9       29.70F WCI  22
HINCKLEY       CLOUDY    30  23  74 SW13      29.75S WCI  20
CLOQUET        LGT SNOW  27  25  93 CALM      29.70F
MCGREGOR       CLOUDY    28  27  93 CALM      29.70F
$$
MNZ071>073-080-081-089-090-097-098-260600-
   Southwest Minnesota

CITY           SKY/WX    TMP DP  RH WIND       PRES   REMARKS
MONTEVIDEO     CLOUDY    28  21  74 W13       29.76F WCI  18
GRANITE FALLS  CLOUDY    29  23  76 S12       29.78F WCI  20
CANBY          CLOUDY    28  22  78 SW12G20   29.75F WCI  18
MARSHALL       CLOUDY    27  20  75 SW21      29.76F WCI  13
REDWOOD FALLS  MOCLDY    26  18  71 SW14      29.79F WCI  14
OLIVIA         MOCLDY    28  21  74 S15       29.77F WCI  17
PIPESTONE      CLOUDY    23  18  80 SW10      29.76F WCI  12
WINDOM         CLOUDY    23  18  80 S13       29.79F WCI  11
WORTHINGTON    PTCLDY    21  17  84 SW17      29.79F WCI   7
JACKSON        CLOUDY    21  14  73 S12       29.81F WCI   9
TRACY          CLOUDY    27  21  79 SW22      29.77S WCI  12
SLAYTON        CLOUDY    23  19  86 SW17      29.77F WCI   9
$$
MNZ065>067-074>077-082>085-091>093-260600-
   South Central Minnesota

CITY           SKY/WX    TMP DP  RH WIND       PRES   REMARKS
MANKATO          N/A     22  16  78 S9G18     29.84F WCI  12
NEW ULM        CLEAR     21  16  79 S10       29.81F WCI  10
ST JAMES       CLOUDY    21  18  86 S13       29.83S WCI   9
FAIRMONT       MOCLDY    21  15  78 S15       29.83F WCI   8
GLENCOE        PTCLDY    26  21  81 S14       29.80F WCI  14
FARIBAULT      CLOUDY    25  16  68 S10       29.85F WCI  15
OWATONNA       CLOUDY    23  14  68 S15       29.85F WCI  10
WASECA         MOCLDY    21  14  73 S13       29.86F WCI   9
ALBERT LEA     PTCLDY    21  16  79 S8        29.86F WCI  12
$$
MNZ078>079-086>088-094>096-260600-
   Southeast Minnesota

CITY           SKY/WX    TMP DP  RH WIND       PRES   REMARKS
ROCHESTER      CLOUDY    21  15  78 S17       29.87F WCI   7
RED WING       CLOUDY    23  12  63 CALM      29.87F
STANTON        CLOUDY    25  16  68 SW17      29.84F WCI  11
WINONA         CLOUDY    23  14  68 SW5       29.94S WCI  17
AUSTIN         CLOUDY    18  12  79 S7        29.88F WCI   8
PRESTON        CLOUDY    20  14  76 SW10      29.90F WCI   9
$$
ABBREVIATIONS USED IN REMARKS
   TC - TEMPERATURES IN CELSIUS
  WCI - WIND CHILL INDEX
   HX - HEAT INDEX
  VSB - VISIBILITY
$$




USA.gov is the U.S. government's official web portal to all federal, state and local government web resources and services.